DAL1711 KMDW-KROC

Flight info

Callsign DAL1711
Flight time 1h 7m
Altitude 39000
Route LEWKE GIJ EVOTE NELLS KEEHO DKK BUF
Aircraft A320/M-SDE3FGHIRWY/LB1

Departure

Time 2026-05-09 15:10
Airport Chicago Midway International Airport (KMDW)

Arrival

Time 2026-05-09 16:18
Airport Frederick Douglass Greater Rochester International Airport (KROC)
Time Latitude Longitude Altitude Speed Heading
2026-05-09 14:54 41.78672 -87.74477 620 ft 0 kts 314°
2026-05-09 14:54 41.78672 -87.74476 620 ft 0 kts 314°
2026-05-09 15:01 41.78668 -87.74470 619 ft 2 kts 314°
2026-05-09 15:02 41.78654 -87.74451 631 ft 3 kts 311°
2026-05-09 15:02 41.78643 -87.74431 624 ft 3 kts 280°
2026-05-09 15:02 41.78642 -87.74417 632 ft 1 kts 224°
2026-05-09 15:02 41.78643 -87.74416 632 ft 0 kts 223°
2026-05-09 15:06 41.78821 -87.74638 625 ft 15 kts 44°
2026-05-09 15:06 41.78895 -87.74541 623 ft 14 kts 45°
2026-05-09 15:06 41.78940 -87.74480 619 ft 13 kts 45°
2026-05-09 15:06 41.79000 -87.74402 628 ft 11 kts 43°
2026-05-09 15:07 41.79058 -87.74328 626 ft 12 kts 43°
2026-05-09 15:07 41.79127 -87.74260 620 ft 12 kts 14°
2026-05-09 15:07 41.79186 -87.74318 625 ft 12 kts 267°
2026-05-09 15:07 41.79153 -87.74368 620 ft 0 kts 224°
2026-05-09 15:08 41.79148 -87.74375 622 ft 7 kts 224°
2026-05-09 15:08 41.78904 -87.74689 624 ft 92 kts 224°
2026-05-09 15:09 41.78252 -87.75515 726 ft 152 kts 226°
2026-05-09 15:10 41.71724 -87.74011 4284 ft 287 kts 85°
2026-05-09 15:11 41.72029 -87.71351 5115 ft 292 kts 76°
2026-05-09 15:11 41.72484 -87.68661 5922 ft 299 kts 75°
2026-05-09 15:11 41.72913 -87.65913 6727 ft 306 kts 77°
2026-05-09 15:11 41.73271 -87.63067 7465 ft 313 kts 80°
2026-05-09 15:12 41.73566 -87.60199 8307 ft 317 kts 81°
2026-05-09 15:12 41.73842 -87.57250 9144 ft 321 kts 82°
2026-05-09 15:12 41.74119 -87.54258 9921 ft 327 kts 82°
2026-05-09 15:12 41.74412 -87.51133 10229 ft 350 kts 81°
2026-05-09 15:13 41.74734 -87.47804 10626 ft 366 kts 81°
2026-05-09 15:13 41.75070 -87.44384 11313 ft 373 kts 81°
2026-05-09 15:13 41.75417 -87.40914 12056 ft 378 kts 81°
2026-05-09 15:13 41.75769 -87.37404 12811 ft 382 kts 81°
2026-05-09 15:14 41.76123 -87.33864 13556 ft 386 kts 80°
2026-05-09 15:14 41.76482 -87.30291 14204 ft 389 kts 81°
2026-05-09 15:14 41.76844 -87.26678 14835 ft 393 kts 81°
2026-05-09 15:14 41.77207 -87.23025 15447 ft 398 kts 81°
2026-05-09 15:15 41.77572 -87.19322 16038 ft 403 kts 81°
2026-05-09 15:15 41.77941 -87.15581 16638 ft 408 kts 81°
2026-05-09 15:15 41.78311 -87.11790 17228 ft 413 kts 81°
2026-05-09 15:15 41.78680 -87.07961 17812 ft 417 kts 81°
2026-05-09 15:16 41.79054 -87.04081 18359 ft 422 kts 81°
2026-05-09 15:16 41.79435 -87.00159 18894 ft 426 kts 80°
2026-05-09 15:16 41.79818 -86.96213 19462 ft 430 kts 80°
2026-05-09 15:16 41.80200 -86.92273 20070 ft 432 kts 80°
2026-05-09 15:17 41.80584 -86.88265 20629 ft 435 kts 80°
2026-05-09 15:17 41.80967 -86.84224 21162 ft 439 kts 80°
2026-05-09 15:17 41.81346 -86.80150 21694 ft 442 kts 80°
2026-05-09 15:17 41.81726 -86.76040 22228 ft 446 kts 80°
2026-05-09 15:18 41.82112 -86.71897 22750 ft 449 kts 79°
2026-05-09 15:18 41.82504 -86.67724 23270 ft 452 kts 79°
2026-05-09 15:18 41.82896 -86.63528 23693 ft 456 kts 79°
2026-05-09 15:18 41.83291 -86.59292 24077 ft 460 kts 79°
2026-05-09 15:19 41.83688 -86.55020 24472 ft 464 kts 79°
2026-05-09 15:19 41.84087 -86.50718 24880 ft 466 kts 79°
2026-05-09 15:19 41.84486 -86.46379 25262 ft 470 kts 79°
2026-05-09 15:19 41.84883 -86.42023 25619 ft 474 kts 79°
2026-05-09 15:20 41.85284 -86.37616 25968 ft 477 kts 78°
2026-05-09 15:20 41.86097 -86.28700 26637 ft 485 kts 78°
2026-05-09 15:20 41.86506 -86.24202 26962 ft 488 kts 78°
2026-05-09 15:21 41.86914 -86.19661 27285 ft 492 kts 78°
2026-05-09 15:21 41.87319 -86.15085 27653 ft 494 kts 78°
2026-05-09 15:21 41.87720 -86.10504 28011 ft 497 kts 78°
2026-05-09 15:21 41.88122 -86.05882 28331 ft 500 kts 78°
2026-05-09 15:22 41.88524 -86.01290 28610 ft 503 kts 78°
2026-05-09 15:22 41.88942 -85.96554 28909 ft 507 kts 78°
2026-05-09 15:22 41.89354 -85.91840 29205 ft 510 kts 78°
2026-05-09 15:22 41.89761 -85.87160 29491 ft 513 kts 78°
2026-05-09 15:23 41.90173 -85.82379 29765 ft 516 kts 78°
2026-05-09 15:23 41.90585 -85.77585 30003 ft 519 kts 78°
2026-05-09 15:23 41.90995 -85.72764 30296 ft 521 kts 78°
2026-05-09 15:23 41.91400 -85.67931 30606 ft 521 kts 79°
2026-05-09 15:24 41.91804 -85.63095 30861 ft 522 kts 78°
2026-05-09 15:24 41.92213 -85.58240 31087 ft 524 kts 78°
2026-05-09 15:24 41.92621 -85.53373 31307 ft 526 kts 79°
2026-05-09 15:24 41.93027 -85.48494 31622 ft 525 kts 79°
2026-05-09 15:25 41.93425 -85.43636 32112 ft 520 kts 79°
2026-05-09 15:25 41.93815 -85.38828 32667 ft 515 kts 79°
2026-05-09 15:25 41.94202 -85.34061 33200 ft 510 kts 79°
2026-05-09 15:26 41.94964 -85.24662 34105 ft 504 kts 80°
2026-05-09 15:26 41.95103 -85.19951 34454 ft 505 kts 87°
2026-05-09 15:26 41.95089 -85.15307 34799 ft 502 kts 87°
2026-05-09 15:26 41.95076 -85.10624 35115 ft 501 kts 87°
2026-05-09 15:27 41.95063 -85.05948 35351 ft 501 kts 87°
2026-05-09 15:27 41.95046 -85.01278 35605 ft 501 kts 88°
2026-05-09 15:27 41.95029 -84.96579 35740 ft 504 kts 88°
2026-05-09 15:27 41.95013 -84.91855 35763 ft 507 kts 88°
2026-05-09 15:28 41.94972 -84.82362 35760 ft 509 kts 88°
2026-05-09 15:28 41.94914 -84.72853 35756 ft 509 kts 88°
2026-05-09 15:29 41.94846 -84.63344 35759 ft 509 kts 89°
2026-05-09 15:29 41.94779 -84.53845 35759 ft 509 kts 89°
2026-05-09 15:30 41.94701 -84.44339 35760 ft 509 kts 89°
2026-05-09 15:30 41.94613 -84.34831 35777 ft 509 kts 89°
2026-05-09 15:31 41.94519 -84.25325 35797 ft 509 kts 89°
2026-05-09 15:31 41.94422 -84.15825 35792 ft 509 kts 89°
2026-05-09 15:32 41.94313 -84.06358 35788 ft 509 kts 89°
2026-05-09 15:32 41.94193 -83.96840 35780 ft 510 kts 89°
2026-05-09 15:33 41.94065 -83.87322 35795 ft 510 kts 90°
2026-05-09 15:33 41.93933 -83.77806 35790 ft 509 kts 90°
2026-05-09 15:34 41.93799 -83.68291 35789 ft 509 kts 90°
2026-05-09 15:34 41.93653 -83.58773 35785 ft 509 kts 90°
2026-05-09 15:35 41.93488 -83.49262 35790 ft 509 kts 91°
2026-05-09 15:35 41.93396 -83.39768 35779 ft 509 kts 89°
2026-05-09 15:36 41.93394 -83.30266 35777 ft 508 kts 89°
2026-05-09 15:36 41.93376 -83.20775 35781 ft 508 kts 89°
2026-05-09 15:37 41.93328 -83.11340 35786 ft 508 kts 90°
2026-05-09 15:37 41.93255 -83.01783 35784 ft 508 kts 90°
2026-05-09 15:38 41.93173 -82.92342 35784 ft 509 kts 90°
2026-05-09 15:38 41.93087 -82.82847 35792 ft 509 kts 90°
2026-05-09 15:39 41.93006 -82.73337 35792 ft 509 kts 90°
2026-05-09 15:39 41.92909 -82.63836 35796 ft 509 kts 90°
2026-05-09 15:40 41.92802 -82.54342 35801 ft 509 kts 90°
2026-05-09 15:40 41.92688 -82.44843 35802 ft 509 kts 90°
2026-05-09 15:41 41.92569 -82.35336 35807 ft 509 kts 91°
2026-05-09 15:41 41.92441 -82.25845 35810 ft 508 kts 91°
2026-05-09 15:42 41.92300 -82.16361 35814 ft 508 kts 91°
2026-05-09 15:42 41.92152 -82.06870 35816 ft 508 kts 91°
2026-05-09 15:43 41.92005 -81.97396 35842 ft 507 kts 91°
2026-05-09 15:43 41.91854 -81.87990 35836 ft 506 kts 89°
2026-05-09 15:44 41.92807 -81.78696 35832 ft 501 kts 71°
2026-05-09 15:44 41.94914 -81.69794 35825 ft 500 kts 70°
2026-05-09 15:45 41.97023 -81.60861 35822 ft 500 kts 70°
2026-05-09 15:45 41.99106 -81.51938 35817 ft 500 kts 70°
2026-05-09 15:46 42.01186 -81.43010 35814 ft 500 kts 70°
2026-05-09 15:46 42.03267 -81.34081 35813 ft 501 kts 70°
2026-05-09 15:47 42.05331 -81.25194 35811 ft 500 kts 70°
2026-05-09 15:47 42.07395 -81.16240 35840 ft 500 kts 70°
2026-05-09 15:48 42.09448 -81.07297 35833 ft 500 kts 71°
2026-05-09 15:48 42.11493 -80.98353 35832 ft 499 kts 71°
2026-05-09 15:49 42.13531 -80.89397 35825 ft 499 kts 71°
2026-05-09 15:49 42.15558 -80.80441 35824 ft 499 kts 71°
2026-05-09 15:50 42.17580 -80.71499 35830 ft 499 kts 71°
2026-05-09 15:50 42.19600 -80.62606 35826 ft 499 kts 71°
2026-05-09 15:51 42.21616 -80.53649 35814 ft 499 kts 71°
2026-05-09 15:51 42.23610 -80.44687 35842 ft 499 kts 72°
2026-05-09 15:52 42.26593 -80.31235 35838 ft 498 kts 72°
2026-05-09 15:53 42.28572 -80.22268 35828 ft 498 kts 72°
2026-05-09 15:53 42.30548 -80.13296 35815 ft 498 kts 72°
2026-05-09 15:54 42.32516 -80.04317 35821 ft 499 kts 72°
2026-05-09 15:54 42.34149 -79.96845 35826 ft 499 kts 72°
2026-05-09 15:55 42.36434 -79.86377 35825 ft 499 kts 72°
2026-05-09 15:55 42.38382 -79.77378 35825 ft 499 kts 73°
2026-05-09 15:56 42.40003 -79.69829 35821 ft 499 kts 73°
2026-05-09 15:56 42.41939 -79.60797 35823 ft 499 kts 73°
2026-05-09 15:57 42.43872 -79.51774 35823 ft 499 kts 73°
2026-05-09 15:57 42.44835 -79.47263 35717 ft 500 kts 73°
2026-05-09 15:57 42.45805 -79.42696 34609 ft 511 kts 73°
2026-05-09 15:57 42.46786 -79.38046 33939 ft 511 kts 75°
2026-05-09 15:58 42.47778 -79.33468 33404 ft 506 kts 71°
2026-05-09 15:58 42.49154 -79.29091 32838 ft 502 kts 61°
2026-05-09 15:58 42.50962 -79.25105 32315 ft 495 kts 51°
2026-05-09 15:58 42.53130 -79.21599 31800 ft 488 kts 43°
2026-05-09 15:59 42.55470 -79.18293 31273 ft 484 kts 43°
2026-05-09 15:59 42.57790 -79.15004 30763 ft 481 kts 43°
2026-05-09 15:59 42.60092 -79.11733 30244 ft 478 kts 44°
2026-05-09 15:59 42.62353 -79.08450 29827 ft 473 kts 49°
2026-05-09 16:00 42.64140 -79.04767 29664 ft 461 kts 61°
2026-05-09 16:00 42.67209 -78.97217 28563 ft 458 kts 61°
2026-05-09 16:00 42.68734 -78.93422 28076 ft 456 kts 61°
2026-05-09 16:01 42.70244 -78.89646 27828 ft 453 kts 61°
2026-05-09 16:01 42.71739 -78.85903 27521 ft 448 kts 61°
2026-05-09 16:01 42.73226 -78.82184 27001 ft 447 kts 60°
2026-05-09 16:01 42.74703 -78.78481 26505 ft 444 kts 60°
2026-05-09 16:02 42.76172 -78.74796 26001 ft 443 kts 60°
2026-05-09 16:02 42.79101 -78.67451 24947 ft 440 kts 60°
2026-05-09 16:02 42.80555 -78.63795 24426 ft 439 kts 60°
2026-05-09 16:03 42.82003 -78.60144 23878 ft 438 kts 60°
2026-05-09 16:03 42.83442 -78.56510 23495 ft 433 kts 59°
2026-05-09 16:03 42.84874 -78.52893 22918 ft 431 kts 59°
2026-05-09 16:03 42.86274 -78.49350 22268 ft 421 kts 59°
2026-05-09 16:04 42.87647 -78.45874 21634 ft 410 kts 59°
2026-05-09 16:04 42.88992 -78.42467 21129 ft 407 kts 59°
2026-05-09 16:04 42.90332 -78.39070 20618 ft 406 kts 59°
2026-05-09 16:04 42.91669 -78.35683 20113 ft 405 kts 59°
2026-05-09 16:05 42.92999 -78.32311 19667 ft 402 kts 59°
2026-05-09 16:05 42.94315 -78.28957 19168 ft 401 kts 59°
2026-05-09 16:05 42.95616 -78.25631 18832 ft 392 kts 59°
2026-05-09 16:05 42.96876 -78.22410 18127 ft 386 kts 59°
2026-05-09 16:06 42.98118 -78.19237 17614 ft 373 kts 59°
2026-05-09 16:06 42.99318 -78.16174 17354 ft 361 kts 59°
2026-05-09 16:06 43.00499 -78.13158 16921 ft 360 kts 59°
2026-05-09 16:06 43.01676 -78.10144 16491 ft 359 kts 59°
2026-05-09 16:07 43.02848 -78.07134 16050 ft 359 kts 59°
2026-05-09 16:07 43.04029 -78.04136 15618 ft 357 kts 56°
2026-05-09 16:07 43.05498 -78.01445 15210 ft 351 kts 42°
2026-05-09 16:07 43.07321 -77.99297 14828 ft 343 kts 30°
2026-05-09 16:08 43.09381 -77.97715 14448 ft 337 kts 21°
2026-05-09 16:08 43.11476 -77.96297 14067 ft 335 kts 22°
2026-05-09 16:08 43.13559 -77.94878 13688 ft 334 kts 22°
2026-05-09 16:08 43.15632 -77.93464 13279 ft 332 kts 22°
2026-05-09 16:09 43.17691 -77.92059 12893 ft 329 kts 22°
2026-05-09 16:09 43.19731 -77.90669 12526 ft 326 kts 22°
2026-05-09 16:09 43.21756 -77.89285 12134 ft 324 kts 22°
2026-05-09 16:09 43.23760 -77.87913 11753 ft 321 kts 23°
2026-05-09 16:10 43.25738 -77.86555 11499 ft 313 kts 23°
2026-05-09 16:10 43.27660 -77.85235 10966 ft 305 kts 23°
2026-05-09 16:10 43.29536 -77.83943 10412 ft 299 kts 25°
2026-05-09 16:10 43.31229 -77.82296 9851 ft 299 kts 41°
2026-05-09 16:11 43.32536 -77.80142 9275 ft 297 kts 57°
2026-05-09 16:11 43.33416 -77.77598 8617 ft 294 kts 71°
2026-05-09 16:11 43.34081 -77.74957 7961 ft 291 kts 71°
2026-05-09 16:11 43.34736 -77.72348 7323 ft 287 kts 73°
2026-05-09 16:12 43.35019 -77.69678 6741 ft 279 kts 96°
2026-05-09 16:12 43.34607 -77.67207 6578 ft 255 kts 111°
2026-05-09 16:12 43.34051 -77.64945 6191 ft 246 kts 111°
2026-05-09 16:12 43.33502 -77.62734 5672 ft 243 kts 111°
2026-05-09 16:13 43.32955 -77.60547 5315 ft 240 kts 111°
2026-05-09 16:13 43.32415 -77.58397 5179 ft 237 kts 111°
2026-05-09 16:13 43.31876 -77.56275 5051 ft 234 kts 115°
2026-05-09 16:13 43.30967 -77.54542 4867 ft 220 kts 146°
2026-05-09 16:14 43.29589 -77.53768 4593 ft 215 kts 177°
2026-05-09 16:14 43.28139 -77.54087 4278 ft 213 kts 206°
2026-05-09 16:14 43.26873 -77.55117 3965 ft 211 kts 212°
2026-05-09 16:14 43.25624 -77.56174 3659 ft 210 kts 211°
2026-05-09 16:15 43.24381 -77.57226 3343 ft 207 kts 211°
2026-05-09 16:15 43.23179 -77.58241 3042 ft 199 kts 211°
2026-05-09 16:15 43.22023 -77.59218 2789 ft 193 kts 211°
2026-05-09 16:15 43.20888 -77.60177 2501 ft 192 kts 211°
2026-05-09 16:16 43.19760 -77.61130 2211 ft 186 kts 211°
2026-05-09 16:16 43.18685 -77.62036 1964 ft 175 kts 211°
2026-05-09 16:16 43.17700 -77.62865 1768 ft 157 kts 211°
2026-05-09 16:16 43.16823 -77.63602 1552 ft 143 kts 210°
2026-05-09 16:17 43.15992 -77.64289 1323 ft 136 kts 211°
2026-05-09 16:17 43.15185 -77.64968 1172 ft 136 kts 211°
2026-05-09 16:17 43.14377 -77.65646 1034 ft 137 kts 212°
2026-05-09 16:17 43.13583 -77.66332 821 ft 132 kts 213°
2026-05-09 16:18 43.12806 -77.67002 632 ft 132 kts 213°
2026-05-09 16:18 43.12053 -77.67629 565 ft 107 kts 211°
2026-05-09 16:18 43.11667 -77.67952 570 ft 35 kts 211°
2026-05-09 16:18 43.11470 -77.68120 563 ft 32 kts 212°
2026-05-09 16:19 43.11290 -77.68268 571 ft 24 kts 211°
2026-05-09 16:19 43.11146 -77.68358 570 ft 21 kts 184°
2026-05-09 16:19 43.11084 -77.68263 565 ft 17 kts 56°
2026-05-09 16:19 43.11176 -77.68183 568 ft 15 kts 31°
2026-05-09 16:20 43.11263 -77.68109 569 ft 14 kts 32°
2026-05-09 16:20 43.11354 -77.68033 564 ft 17 kts 31°
2026-05-09 16:20 43.11457 -77.67947 566 ft 18 kts 31°
2026-05-09 16:20 43.11569 -77.67853 566 ft 20 kts 32°
2026-05-09 16:21 43.11696 -77.67745 565 ft 23 kts 32°
2026-05-09 16:21 43.11838 -77.67622 568 ft 25 kts 32°
2026-05-09 16:21 43.11991 -77.67495 565 ft 27 kts 27°
2026-05-09 16:21 43.12153 -77.67365 562 ft 28 kts 33°
2026-05-09 16:22 43.12317 -77.67229 563 ft 26 kts 32°
2026-05-09 16:22 43.12465 -77.67103 564 ft 20 kts 32°
2026-05-09 16:22 43.12510 -77.66939 559 ft 20 kts 88°
2026-05-09 16:22 43.12513 -77.66746 567 ft 21 kts 86°
2026-05-09 16:23 43.12543 -77.66550 564 ft 20 kts 66°
2026-05-09 16:23 43.12600 -77.66462 561 ft 7 kts 64°
2026-05-09 16:23 43.12615 -77.66423 568 ft 0 kts 61°
2026-05-09 16:23 43.12615 -77.66422 567 ft 0 kts 61°